International Virtual Aviation Organisation

Russian Federation and Kazakhstan MCD

 

Карточка аэропорта UHMM

Внимание!
Информация на этой странице в стадии наполнения.
Если вы не увидели какой-то информации, или заметили неточность - пожалуйста сообщите нам!
Спасибо!
Команда RU-STAFF
Название аэропортаСокол
Название аэропорта (англ.)Sokol
Превышение574 ft. (175 m.)
Координаты59°54.666', 150°43.26'
Высота перехода2150m
Эшелон переходаQFE>=733mm:FL090; QFE<733:FL100
Коды ответчика6540-6577
Зона ОрВДМагадан РПИ (UHMM)
Данные METARUHMM 281900Z 10013G18MPS 2800 BLSN OVC017CB M03/M04 Q0981 RMK MT OBSC QFE721
Проноз погоды (TAF)UHMM 281650Z 2818/2924 10017G27MPS 0300 +SHSN BLSN VV003 TEMPO 2818/2904 0800 +SHSN BLSN VV005 FM290400 14007G14MPS 3100 -SHSN BLSN BKN015CB TEMPO 2904/2918 0500 +SHSN BLSN VV004
NOTAMshow/hide NOTAM
AWOS   TABLE

Информация о ВПП


Диспетчерские позиции

Позывной Наименование органа УВД Частота
UHMM_APPМагадан-Подход119.3
UHMM_TWRМагадан-Вышка120.8



Спутниковое изображение